Flag for Hong Kong Weather past 2 weeks in Kowloon, Hong Kong

Now
90 °F

Passing clouds.


Feels Like: 103 °F
Forecast: 84 / 89 °F
Wind: 7 mph from Northwest

Location: National Airport

Current Time: Jul 25, 2014 at 12:48:42 PM

Latest Report: Jul 25, 2014 at 12:30 PM


Visibility: N/A

Pressure: 29.71 "Hg

Humidity: 67%

Dew point: 77 °F

Location of KowloonLocation

Historic Weather in Kowloon — Graph

°F

Kowloon temperature yesterday

Maximum temperature yesterday: 91 °F (at 1:30 PM)
Minimum temperature yesterday: 81 °F (at 10:30 PM)
Average temperature yesterday: 87 °F

Past Weeks' High & Low Weather Summary

 TemperatureHumidityPressure
High95 °F (Jul 22, 2:00 PM)94% (Jul 11, 6:30 AM)29.86 "Hg (Jul 11, 6:30 AM)
Low81 °F (Jul 11, 6:30 AM)52% (Jul 16, 11:30 AM)29.45 "Hg (Jul 23, 5:00 PM)
Average87 °F74%29.70 "Hg
* Reported Jul 10 12:00 Noon — Jul 25 12:00 Noon, Kowloon, Weather by CustomWeather, © 2014

Note: Actual official high and low records may vary slightly from our data, if they occured in-between our weather recording intervals... More about our weather records

Advertising

Kowloon weather history for previous 24 hours

 ConditionsComfort  
Time TempWeatherWind HumidityBarometerVisibility
12:00 PM
Jul 25
91 °FScattered showers. Passing clouds.7 mph63%29.71 "HgN/A
11:30 AM90 °FScattered showers. Passing clouds.8 mph71%29.71 "HgN/A
11:00 AM90 °FPassing clouds.9 mph71%29.71 "HgN/A
10:30 AM88 °FScattered clouds.9 mph75%29.71 "HgN/A
10:00 AM88 °FScattered clouds.9 mph75%29.71 "HgN/A
9:30 AM86 °FSprinkles. Scattered clouds.12 mph75%29.71 "HgN/A
9:00 AM88 °FScattered clouds.12 mph70%29.71 "HgN/A
8:30 AM88 °FScattered clouds.8 mph70%29.68 "HgN/A
8:00 AM86 °FScattered clouds.8 mph75%29.68 "HgN/A
7:30 AM86 °FScattered clouds.6 mph75%29.68 "HgN/A
7:00 AM86 °FScattered clouds.6 mph75%29.68 "HgN/A
6:30 AM86 °FPassing clouds.7 mph75%29.65 "HgN/A
6:00 AM86 °FPassing clouds.5 mph70%29.65 "HgN/A
5:30 AM84 °FPassing clouds.7 mph79%29.65 "HgN/A
5:00 AM84 °FPassing clouds.6 mph74%29.65 "HgN/A
4:30 AM84 °FPassing clouds.5 mph79%29.65 "HgN/A
4:00 AM84 °FPassing clouds.5 mph79%29.65 "HgN/A
3:30 AM84 °FPassing clouds.2 mph74%29.65 "HgN/A
3:00 AM82 °FPassing clouds.6 mph79%29.65 "HgN/A
2:30 AM82 °FPassing clouds.5 mph79%29.65 "HgN/A
2:00 AM82 °FPassing clouds.6 mph79%29.65 "HgN/A
1:30 AM82 °FPassing clouds.6 mph74%29.65 "HgN/A
1:00 AM82 °FPassing clouds.7 mph74%29.68 "HgN/A
12:30 AM84 °FPassing clouds.8 mph70%29.65 "HgN/A
12:00 AM81 °FPassing clouds.9 mph84%29.65 "HgN/A
11:30 PM
Jul 24
81 °FSprinkles. Passing clouds.14 mph79%29.65 "HgN/A
11:00 PM81 °FSprinkles. Passing clouds.3 mph79%29.68 "Hg6 mi
10:30 PM81 °FPassing clouds.28 mph79%29.71 "HgN/A
10:00 PM88 °FPassing clouds.12 mph75%29.65 "HgN/A
9:30 PM86 °FPassing clouds.6 mph79%29.65 "HgN/A
9:00 PM86 °FPassing clouds.5 mph79%29.62 "HgN/A
8:30 PM88 °FPassing clouds.8 mph75%29.59 "HgN/A
8:00 PM88 °FPassing clouds.6 mph75%29.59 "HgN/A
7:30 PM88 °FPassing clouds.7 mph75%29.56 "HgN/A
7:00 PM88 °FPassing clouds.12 mph75%29.56 "HgN/A
6:30 PM88 °FPassing clouds.7 mph75%29.53 "HgN/A
6:00 PM90 °FPassing clouds.9 mph71%29.53 "HgN/A
5:30 PM88 °FPassing clouds.9 mph75%29.50 "HgN/A
5:00 PM90 °FPassing clouds.14 mph75%29.50 "HgN/A
4:30 PM90 °FPassing clouds.15 mph71%29.50 "HgN/A
4:00 PM91 °FPassing clouds.14 mph71%29.50 "HgN/A
3:30 PM91 °FPassing clouds.14 mph67%29.50 "HgN/A
3:00 PM91 °FPassing clouds.15 mph71%29.53 "HgN/A
2:30 PM91 °FPassing clouds.17 mph71%29.53 "HgN/A
1:30 PM91 °FScattered clouds.18 mph71%29.56 "HgN/A
1:00 PM90 °FScattered clouds.18 mph75%29.56 "HgN/A
12:30 PM90 °FScattered clouds.18 mph75%29.59 "HgN/A
12:00 PM90 °FScattered clouds.20 mph75%29.59 "HgN/A
Weather by CustomWeather, © 2014

See weather overviewHow to use our weather pages